www.pogodaiklimat.ru

Погода и климат >> Архив погоды >> Россия >> Пензенская область >> Белинский


ПОГОДА в Белинском

  • Прогноз погоды в Белинском
  • Монитор погоды в Белинском

АРХИВ ПОГОДЫ в Белинском

Время (UTC), дата Ветер
(напр.,м/с)
 
Видим.   Явления Облачность Т
(С)
Тd
(С)
f
(%)
Тe
(С)
Тes
(С)
Комфортность P
(гПа)
Po
(гПа)
Тmin
(С)
Tmax
(С)
R
(мм)
R24
(мм)
S
(см)
09 12.08 СЗ 5 20 км 8/8 1000 м
[Cu med, cong]
+16.4 +8.0 58 +16 +17 1016.1 991.9
12 12.08 СЗ 5 20 км 3/3 1000 м
[Cu hum]
+18.9 +6.7 45 +19 +22 1015.5 991.5
15 12.08 СЗ 5 20 км ясно +18.5 +5.1 41 +18 +19 1015.9 991.8 +19.5
18 12.08 СЗ 3 20 км ясно +12.9 +6.3 64 +12 +12 1017.5 992.9
21 12.08 СЗ 1 18 км ясно +8.0 +6.3 89 +7 +7 1018.4 993.4
00 13.08 СЗ 1 15 км ясно +6.4 +5.1 91 +5 +5 1019.3 994.1
03 13.08 С 1 10 км ясно +7.2 +6.0 92 +6 +7 1019.5 994.4 +5.3
06 13.08 СЗ 4 20 км 1/0
[Ci fib]
+15.9 +6.1 52 +15 +20 1019.5 995.1
09 13.08 СЗ 4 20 км 3/0
[Ci fib]
+20.0 +6.6 42 +21 +29 комфорт 1017.7 993.7
12 13.08 СЗ 4 20 км 3/0
[Ac trans]
+23.0 +9.4 42 +25 +29 комфорт 1016.5 992.8
15 13.08 С 2 20 км 4/0
[Ac trans]
+22.9 +10.7 46 +25 +26 комфорт 1016.0 992.3 +23.5
18 13.08 ЮВ 1 18 км 4/0
[Ac trans]
+17.2 +11.8 71 +18 +18 1016.1 991.9
21 13.08 штиль 0 17 км 3/0
[Ac trans]
+14.5 +11.3 81 +14 +14 1016.2 991.8
00 14.08 штиль 0 17 км 4/0
[Ac trans]
+14.8 +11.9 83 +15 +15 1015.1 990.8
03 14.08 ЮВ 1 10 км в посл. час дождь 10/0
[Ac As]
+15.1 +13.9 93 +16 +16 1014.0 989.8 +13.4 0.5
06 14.08 Ю 2 20 км {дождь} 9/0
[Ci]
+21.2 +15.9 72 +25 +31 комфорт 1012.0 988.3
09 14.08 ЮЗ 3 20 км 4/0
[Ci fib]
+26.7 +18.0 59 +31 +41 душно 1011.1 987.9
12 14.08 З 3 20 км 4/4 1000 м
[Cu hum]
+28.7 +17.4 50 +33 +37 очень
душно
1010.9 987.8
15 14.08 З 3
{10}
20 км 4/3 1000 м
[Cu hum Ci fib]
+27.9 +16.2 49 +31 +32 душно 1011.8 988.6 +29.2
18 14.08 С 1 20 км ясно +20.8 +17.2 80 +26 +26 душно 1013.5 989.7
21 14.08 СВ 1 18 км ясно +18.5 +16.2 86 +20 +20 1013.8 989.9
00 15.08 штиль 0 17 км ясно +15.3 +15.2 99 +15 +15 1014.3 990.1
03 15.08 штиль 0 10 км ясно +16.9 +17.0 100 +17 +18 1014.5 990.4 +14.9
06 15.08 ЮВ 1 20 км ясно +24.8 +19.6 73 +30 +39 душно 1013.7 990.3
09 15.08 Ю 1 20 км 3/0
[Ac trans]
+31.3 +19.6 50 +37 +50 очень
душно
1012.6 989.8
12 15.08 Ю 2 20 км 3/3 1000 м
[Cu med, cong]
+32.5 +17.8 42 +37 +42 очень
душно
1011.8 989.1
15 15.08 Ю 1 20 км 4/0
[Ci fib]
+30.9 +17.9 46 +35 +36 очень
душно
1011.4 988.5 +33.0
18 15.08 штиль 0 20 км 3/0
[Ci fib]
+23.3 +19.5 79 +30 +30 очень
душно
1012.7 989.2
21 15.08 ЮВ 1 20 км 4/0
[Ci fib]
+23.3 +18.8 76 +30 +30 очень
душно
1012.9 989.4
00 16.08 В 1 20 км 6/0
[Ci]
+21.4 +16.9 76 +25 +25 комфорт 1012.9 989.2
03 16.08 ЮВ 1 20 км 9/0
[Cs]
+20.7 +16.0 74 +25 +25 комфорт 1012.5 988.8 +20.5
06 16.08 ЮВ 1 20 км 8/3 1000 м
[Cu hum Cs]
+27.7 +15.8 48 +31 +36 душно 1011.4 988.2
09 16.08 ЮВ 2 20 км 9/3 1000 м
[Cu med, cong Cs]
+31.8 +15.3 37 +34 +42 душно 1009.7 986.9
12 16.08 ЮВ 2 20 км 9/4 1000 м
[Cu med, cong Ac As]
+30.9 +15.5 39 +33 +35 душно 1009.1 986.2
15 16.08 С 3 10 км 10/4 600 м
[Cb cap As op]
+23.5 +19.1 76 +28 +28 душно 1010.0 986.6 +32.1
18 16.08 СВ 1
{11}
15 км 10/0
[Ac As]
+20.7 +17.2 80 +25 +25 комфорт 1010.7 987.0
21 16.08 СВ 1 18 км 10/0
[Ac As]
+20.2 +17.4 84 +24 +24 комфорт 1010.4 986.7
00 17.08 СВ 1 16 км 10/0
[Ac trans]
+20.4 +16.6 79 +25 +25 комфорт 1010.7 987.0
03 17.08 В 2 10 км 10/4 600 м
[Cb cap Ac trans]
+21.3 +15.7 70 +25 +25 комфорт 1011.0 987.3 +20.0
06 17.08 В 2 10 км 10/4 600 м
[Cb cap Ac As]
+22.6 +15.9 66 +27 +28 душно 1010.3 986.7
09 17.08 В 2 10 км 10/6 1000 м
[Sc Ac As]
+22.0 +15.0 64 +25 +27 комфорт 1011.8 988.2
12 17.08 В 2 10 км 10/0
[Ac As]
+23.3 +15.8 63 +28 +30 душно 1011.5 988.0
15 17.08 В 2 10 км 10/0
[Ac As]
+23.4 +15.7 62 +28 +28 душно 1010.2 986.7 +24.4
18 17.08 В 1 15 км в посл. час дождь 10/0
[As op]
+21.8 +16.4 71 +26 +26 душно 1009.5 986.0
21 17.08 В 2 18 км 10/0
[Ac As]
+22.4 +13.7 58 +26 +26 жарко 1008.3 984.8
00 18.08 ЮВ 1 20 км ясно +18.7 +14.0 74 +21 +21 комфорт 1009.5 985.6
03 18.08 штиль 0 20 км 6/0
[Ci]
+16.2 +14.3 89 +16 +17 1010.5 986.4 +15.7 0.0
06 18.08 В 1 20 км 8/0
[Ci fib]
+23.0 +15.7 63 +27 +34 душно 1010.9 987.4
09 18.08 Ю 2 20 км 9/3 1000 м
[Cu hum Ci fib]
+27.7 +14.2 44 +30 +37 жарко 1011.0 987.8
12 18.08 Ю 2 20 км 9/6 1000 м
[Cu hum Cs]
+28.9 +15.1 43 +31 +34 жарко 1011.5 988.4
15 18.08 штиль 0 10 км 10/0
[Ac As]
+26.8 +17.8 58 +31 +31 душно 1012.0 988.7 +29.4
18 18.08 ЮВ 1
{11}
15 км {дождь} 10/0
[Ac As]
+20.3 +17.0 81 +24 +24 комфорт 1014.3 990.5
21 18.08 В 1 14 км в посл. час дождь 10/0
[Ac As]
+18.5 +16.9 90 +20 +20 1015.0 991.1
00 19.08 С 1 18 км {дождь} 8/0
[Ac As]
+17.2 +17.0 99 +18 +18 1015.4 991.3
03 19.08 В 1 10 км 8/0
[Ac As]
+17.8 +17.3 97 +19 +19 1015.8 991.8 +16.4 2
06 19.08 СЗ 2 10 км 10/0
[Ac lent Cs]
+22.1 +17.8 77 +27 +30 душно 1016.2 992.5

 

Местоположение метеостанции Белинский (Пензенская область, Россия): широта 52.97 долгота 43.40 высота над уровнем моря 206 м.

В архиве по умолчанию представлена погода в Белинском за последнюю неделю. Архивные данные за месяц целиком и за предыдущие месяцы, начиная с января 2011 года, Вы можете получить, выбрав интересующий диапазон дат из раскрывающегося списка и нажав кнопку "Ввод!".


*Определитесь, кто Вы:
робот инопланетянин человек

Внимание! Время в таблицах - всемирное. Для получения местного времени необходимо прибавить поправку, которая равна 3 ч.

Смотрите также архив погоды в соседних городах и на ближайших метеорологических станциях:

Погода в Пачелме (Пензенская область, Россия) (40 км)
Погода в Каменке (Пензенская область, Россия) (48 км)
Погода в Кирсанове (Тамбовская область, Россия) (57 км)
Погода в Земетчино (Пензенская область, Россия) (76 км)
Погода в Ртищево (Саратовская область, Россия) (84 км)
Погода в Колышлее (Пензенская область, Россия) (91 км)
Погода в Пензе (Пензенская область, Россия) (110 км)
Погода в Кондоле (Пензенская область, Россия) (113 км)
Погода в Моршанске (Тамбовская область, Россия) (119 км)
Погода в Инсаре (Мордовия, Россия) (119 км)

Пояснения к столбцам:

Ветер - указаны скорость ветра в м/с - средняя за 10 мин, порывы в срок и между сроками (в фигурных скобках) и направление, откуда дует ветер: С - северный, СВ - северо-восточный, В - восточный, ЮВ - юго-восточный, Ю - южный, ЮЗ - юго-западный, З - западный, СЗ - северо-западный.
Видимость - горизонтальная дальность видимости в метрах или километрах. При видимости от 1 до 10 км при отсутствии осадков обычно наблюдается дымка, при ухудшении видимости до 1 км и менее - туман. В сухую погоду видимость может ухудшаться дымом, пылью или мглою.
Явления - указаны атмосферные явления, наблюдавшиеся в срок или в последний час перед сроком; фигурными скобками обозначены явления, наблюдавшиеся между сроками (за 1-3 часа до срока); квадратными скобками обозначены град или гололедные отложения с указанием их диаметра в мм.
Облачность - указаны через наклонную черту общая и нижняя облачность в баллах и высота нижней границы облаков в метрах; квадратными скобками обозначены формы облаков: Ci - перистые, Cs - перисто-слоистые, Cc - перисто-кучевые, Ac - высококучевые, As - высокослоистые, Sc - слоисто-кучевые, Ns - слоисто-дождевые, Cu - кучевые, Cb - кучево-дождевые. Подробнее классификацию облаков см. в Атласе облаков (PDF).
T - Температура воздуха - температура, измеренная на высоте 2 м над землей.
Td - Температура точки росы - температура, при понижении до которой содержащийся в воздухе водяной пар достигнет насыщения.
f - Относительная влажность воздуха - влажноcть воздуха, измеренная на высоте 2 м над землей.
Te - Эффективная температура - температура, которую ощущает одетый по сезону человек в тени. Характеристика душности погоды. При расчете учитывается влияние влажности воздуха и скорости ветра на теплоощущения человека.
Tes - Эффективная температура на солнце - температура, которую ощущает человек, с поправкой на солнечный нагрев. Характеристика знойности погоды. Зависит от высоты солнца над горизонтом, облачности и скорости ветра. Ночью, в пасмурную погоду, а также при ветре 12 м/с и более поправка равна нулю.
P - Атмосферное давление - приведенное к уровню моря атмосферное давление.
Po - Атмосферное давление - измеренное на уровне метеостанции атмосферное давление.
Tmin - Минимальная температура - минимум температуры воздуха на высоте 2 м над землей.
Tmax - Максимальная температура - максимум температуры воздуха на высоте 2 м над землей.
R - Количество осадков - Количество выпавших осадков за период времени, мм. При наведении курсора мыши на число - период времени, за который выпало указанное количество осадков.
R24 - Количество осадков - Количество выпавших осадков за 24 часа, мм.
S - Снежный покров - Высота снежного покрова, см. При наведении курсора мыши на число - состояние снежного покрова и степень покрытия местности в баллах.